Regional Weather Roundup
Issued by NWS

Home | Current Version | Previous Version | Text Only | Print | Product List | Glossary On
Versions: 1 2 3 4 5 6 7 8 9 10 11 12 13 14 15 16 17 18 19 20 21 22 23 24 25 26 27 28
000
ASUS42 KTBW 231810
RWRFL
FLORIDA REGIONAL WEATHER ROUNDUP
NATIONAL WEATHER SERVICE TAMPA BAY RUSKIN FL
200 PM EDT WED APR 23 2014

NOTE: "FAIR" INDICATES FEW OR NO CLOUDS BELOW 12,000 FEET WITH NO
SIGNIFICANT WEATHER AND/OR OBSTRUCTIONS TO VISIBILITY.


FLZ001>010-012>015-112-114-115-231900-
PANHANDLE FLORIDA

CITY           SKY/WX    TMP DP  RH WIND       PRES   REMARKS
PENSACOLA      FAIR      82  59  45 NW5       29.93F
PENSACOLA NAS  FAIR      76  66  71 SW8       29.94F
MILTON NAS     PTSUNNY   81  60  48 N7        29.93F
CRESTVIEW      MOSUNNY   82  60  47 VRB5      29.94F
DUKE FIELD     PTSUNNY   81  59  47 N6        29.93F
VALPARAISO     MOSUNNY   77  67  72 S10       29.93F
MARY ESTHER    FAIR      75  60  59 SW12      29.93F
PANAMA CITY    FAIR      82  61  48 CALM      29.92F
TYNDALL AFB    MOSUNNY   76  72  88 SW10      29.94F
APALACHICOLA   SUNNY     75  65  70 S14       29.94F

STATION/POSITION SKY/WX   TEMP    WIND        PRES    WAVE   SWELL
                          AIR SEA DIR/SP/G            HT/PER HT/PER
                          (F)     (DEG/KT/KT) (MB)    (FT/S) (FT/S)
30.1N   87.6W              69 72  150/  4/  4 1014.7F   1
29.2N   88.2W              68 71   10/  6/  6 1014.8F
28.8N   86.0W              69 71  340/  6/  6 1015.1F   1/ 4
PANAMA CITY BEAC           69 66  220/  9/ 10 1013.9F
CAPE SAN BLAS    NOT AVBL
TOWER C                    68     280/  3/  4 1014.2F
28.5N   84.5W              70 72  340/  2/  2 1014.4F   1/ 4

$$
FLZ011-016>038-118-127-128-134-139-239-231900-
NORTH FLORIDA

CITY           SKY/WX    TMP DP  RH WIND       PRES   REMARKS
MARIANNA       MOSUNNY   81  60  48 VRB3      29.93F
TALLAHASSEE    PTSUNNY   82  60  47 W7        29.92F
PERRY          MOSUNNY   79  63  57 SW3       29.93F
CROSS CITY       N/A     81  64  56 SW8       29.92F
GAINESVILLE    PTSUNNY   80  62  54 NW6       29.91F
MAYPORT NAS    MOSUNNY   82  59  45 W6G17     29.90F
JACKSONVILLE   MOSUNNY   81  60  48 NW12      29.89F
JAX NAS        MOSUNNY   83  59  44 W9        29.90F
JAX CRAIG      MOSUNNY   83  60  45 W10G17    29.90F
JAX CECIL      PTSUNNY   82  61  47 NW12      29.91F
FERNANDINA BEA FAIR      82  59  44 NW7       29.88F
ST AUGUSTINE   MOSUNNY   78  65  63 E7        29.91F

STATION/POSITION SKY/WX   TEMP    WIND        PRES    WAVE   SWELL
                          AIR SEA DIR/SP/G            HT/PER HT/PER
                          (F)     (DEG/KT/KT) (MB)    (FT/S) (FT/S)
SHELL POINT                72     180/  5/  7 1013.2F
KEATON BEACH               67     240/  9/ 11 1014.1F
CEDAR KEY                  70     280/  9/ 10 1014.9F
FERNANDINA                 78 68  310/  9/ 13 1011.5F
30.7N   81.3W                 67                N/A     2/ 8
MAYPORT                    78 69  320/ 10/ 17   N/A
31.4N   80.9W              69 67  240/  2/  2 1011.7F   2/ 9   2/ 9
ST AUGUSTINE               71     100/  6/  7 1013.4F

$$
FLZ040-043>046-052-053-057-058-063-144-231900-
INTERIOR CENTRAL FLORIDA

CITY           SKY/WX    TMP DP  RH WIND       PRES   REMARKS
OCALA          MOSUNNY   81  61  50 NW7       29.93F
THE VILLAGES     N/A     82  63  51 W5        29.92F
LEESBURG       SUNNY     81  62  52 VRB5      29.93F
SANFORD        MOSUNNY   82  61  48 VRB3      29.91F
ORLANDO EXEC   SUNNY     80  60  50 VRB6      29.92F
ORLANDO INTL   MOSUNNY   83  60  45 VRB3      29.92F
KISSIMMEE      MOSUNNY   81  63  54 CALM      29.93F
WINTER HAVEN   MOSUNNY   80  60  50 VRB5      29.95F
LAKELAND         N/A     81  59  47 W6        29.94F
BARTOW         MOSUNNY   77  59  53 NW6       29.95F
OKEECHOBEE     SUNNY     79  63  57 NW6       29.94F

$$
FLZ041-047-054-059-064-141-147-231900-
EAST CENTRAL FLORIDA

CITY           SKY/WX    TMP DP  RH WIND       PRES   REMARKS
ORMOND BEACH   PTSUNNY   75  64  69 E9        29.92F
DAYTONA BEACH  MOSUNNY   79  64  60 VRB5      29.91F
DELAND         PTCLDY    81  59  47 NW5       29.92F
NEW SMYRNA BEA MOSUNNY   77  63  61 NE9       29.92
JFK SPACE CTR  MOSUNNY   81  62  53 SW8       29.91F
TITUSVILLE     MOSUNNY   79  61  53 E8        29.92F
CAPE CANAVERAL SUNNY     78  64  62 SE9       29.92S
PATRICK AFB    SUNNY     77  65  65 E9        29.92F
MELBOURNE      MOSUNNY   78  62  57 E9        29.92F
VERO BEACH     MOSUNNY   77  65  66 VRB6      29.93F
FT PIERCE      SUNNY     79  64  60 VRB5      29.92F
STUART         MOSUNNY   77  66  69 NE12      29.94F

STATION/POSITION SKY/WX   TEMP    WIND        PRES    WAVE   SWELL
                          AIR SEA DIR/SP/G            HT/PER HT/PER
                          (F)     (DEG/KT/KT) (MB)    (FT/S) (FT/S)
28.5N   80.2W              71 80  280/  4/  6 1013.7F
28.9N   78.5W              74 76  270/ 10/ 12 1012.8F   4/ 8   3/ 8
TRIDENT PIER               76 74  120/  6/  9 1012.8S
28.4N   80.5W                 74                N/A     1/ 9
27.6N   80.2W                 74                N/A     3/ 9   2/11

$$
FLZ050-056-061-142-242-148-248-149-249-151-251-155-255-
160-260-231900-
WEST CENTRAL FLORIDA

CITY           SKY/WX    TMP DP  RH WIND       PRES   REMARKS
CRYSTAL RIVER  FAIR      75  63  64 W8        29.95F
INVERNESS      FAIR      81  61  50 NW5       29.93F
BROOKSVILLE    PTSUNNY   77  62  59 NW10      29.95F
CLEARWATER     MOSUNNY   76  62  62 VRB6      29.95F
TAMPA INTL     MOSUNNY   76  62  62 W9        29.95F
TAMPA EXEC     PTSUNNY   82  61  47 SW6       29.94F
PLANT CITY     MOSUNNY   82  61  47 NW6       29.96F
MACDILL AFB    SUNNY     80  65  60 N7        29.95F
PETER O KNIGHT SUNNY     81  63  54 W5        29.95F
ST PETERSBURG  PTSUNNY   76  65  68 SE7       29.94S
SARASOTA       SUNNY     76  62  62 W13       29.95F
VENICE         FAIR      73  66  78 NW12      29.97F

STATION/POSITION SKY/WX   TEMP    WIND        PRES    WAVE   SWELL
                          AIR SEA DIR/SP/G            HT/PER HT/PER
                          (F)     (DEG/KT/KT) (MB)    (FT/S) (FT/S)
CEDAR KEY                  70     280/  9/ 10 1014.9F
28.5N   84.5W              70 72  340/  2/  2 1014.4F   1/ 4
27.3N   84.3W                 75                N/A     1/ 4
CLEARWATER BEACH           69 73  310/  7/  9 1014.1F
MIDDLE TAMPA BAY           71     280/ 11/ 12 1014.7F
VENICE                     71 74  290/  8/  9 1014.3F

$$
FLZ066-069-070-075>078-162-262-165-265-231900-
SOUTHWEST FLORIDA AND KEYS

CITY           SKY/WX    TMP DP  RH WIND       PRES   REMARKS
PUNTA GORDA    SUNNY     81  62  52 SW8       29.96F
FT MYERS       SUNNY     81  60  48 NW9       29.94F
SOUTHWEST INTL SUNNY     80  60  50 VRB6      29.94F
NAPLES         SUNNY     76  63  64 W10       29.96S
MARATHON       SUNNY     81  64  56 VRB6      29.96F
KEY WEST NAS   MOSUNNY   79  64  60 N9        29.96F
KEY WEST INTL  SUNNY     79  65  62 N9        29.97S

STATION/POSITION SKY/WX   TEMP    WIND        PRES    WAVE   SWELL
                          AIR SEA DIR/SP/G            HT/PER HT/PER
                          (F)     (DEG/KT/KT) (MB)    (FT/S) (FT/S)
VENICE                     71 74  290/  8/  9 1014.3F
NAPLES                     72 78  300/  7/  9 1014.8F
26.0N   85.6W              76 81  360/  6/  8 1014.9F   1/ 9
DRY TORTUGAS     NOT AVBL
NW FL BAY                  74     330/  6/  8 1015.3F
SOMBRERO KEY               74     350/  2/  2 1015.4F
LONG KEY                   73 80  320/  4/  6 1015.6F
MOLASSES REEF              74 80  250/  6/  7 1014.7F

$$
FLZ067-068-071>074-168-172>174-231900-
SOUTHEAST FLORIDA

CITY           SKY/WX    TMP DP  RH WIND       PRES   REMARKS
W PALM BEACH   MOSUNNY   82  61  48 SW10      29.92F
FT LAUDER-EXEC SUNNY     82  61  48 VRB3      29.92F
FT LAUDERDALE  MOSUNNY   84  62  47 W7        29.92F
POMPANO BEACH  MOSUNNY   82  64  54 SE5       29.92F
PEMBROKE PINES SUNNY     83  61  47 SW6       29.94F
OPA LOCKA      SUNNY     82  59  45 VRB3      29.94F
MIAMI          MOSUNNY   83  59  44 VRB7      29.94F
WEST KENDALL   SUNNY     81  60  48 VRB6      29.94F
HOMESTEAD      MOSUNNY   82  64  53 W6        29.93F

STATION/POSITION SKY/WX   TEMP    WIND        PRES    WAVE   SWELL
                          AIR SEA DIR/SP/G            HT/PER HT/PER
                          (F)     (DEG/KT/KT) (MB)    (FT/S) (FT/S)
PORT EVERGLADES            79     110/  3/  5 1013.5
VIRGINIA KEY               77 80  220/  5/  6 1013.6F
LAKE WORTH                 75 79   90/  5/  7 1013.1F
FOWEY ROCKS                76 79  240/  5/  6 1014.3F
SETTLEMENT POINT           76     290/  8/  9 1014.1F

$$




USA.gov is the U.S. government's official web portal to all federal, state and local government web resources and services.